AirNav   Air Wisconsin Up To $57,000 Bonus
 
 557 users online  

P33 Cochise County Airport
Willcox, Arizona, USA

GOING TO WILLCOX?


FAA INFORMATION EFFECTIVE 03 NOVEMBER 2022

Location

FAA Identifier: P33
Lat/Long: 32-14-43.5000N 109-53-40.7000W
32-14.725000N 109-53.678333W
32.2454167,-109.8946389
(estimated)
Elevation: 4187.3 ft. / 1276.3 m (surveyed)
Variation: 11E (1995)
From city: 3 miles W of WILLCOX, AZ
Time zone: UTC -7 (year round; does not observe DST)
Zip code: 85643

Airport Operations

Airport use: Open to the public
Activation date: 03/1945
Control tower: no
ARTCC: ALBUQUERQUE CENTER
FSS: PRESCOTT FLIGHT SERVICE STATION
NOTAMs facility: PRC (NOTAM-D service available)
Attendance: 0800-1700, CLSD HOLS
Wind indicator: lighted
Segmented circle: yes
Lights: ACTVT MIRL RY 03/21 - CTAF.
Beacon: white-green (lighted land airport)
Operates sunset to sunrise.

Airport Communications

CTAF/UNICOM: 122.8
  • APCH/DEP SVC PRVDD BY ALBUQUERQUE ARTCC (ZAB) ON FREQUENCIES 134.45/327.15 (TUCSON RCAG).

Nearby radio navigation aids

VOR radial/distance  VOR name  Freq  Var
SSOr254/32.1SAN SIMON VORTAC115.4013E

Airport Services

Fuel available: 100LL JET-A1+
Parking: hangars and tiedowns
Airframe service: MINOR
Powerplant service: MINOR
Bottled oxygen: NONE
Bulk oxygen: NONE

Runway Information

Runway 3/21

Dimensions: 6095 x 75 ft. / 1858 x 23 m
Surface: asphalt, in good condition
Weight bearing capacity: 
Single wheel: 50.0
Double wheel: 75.0
Double tandem: 135.0
Runway edge lights: medium intensity
RUNWAY 3  RUNWAY 21
Latitude: 32-14.370435N32-15.078537N
Longitude: 109-54.097340W109-53.258255W
Elevation: 4182.0 ft.4185.7 ft.
Traffic pattern: leftleft
Runway heading: 034 magnetic, 045 true214 magnetic, 225 true
Markings: nonprecision, in good conditionnonprecision, in good condition
Runway end identifier lights: nono
Touchdown point: yes, no lightsyes, no lights

Airport Ownership and Management from official FAA records

Ownership: Publicly-owned
Owner: COCHISE COUNTY
1415 W MELODY LANE
BISBEE, AZ 85603
Phone 520-432-5471
Manager: LOUISE WALDEN
780 S VISTA AVE
WILCOX, AZ 85643
Phone (520) 384-2908

Airport Operational Statistics

Aircraft based on the field: 21
Single engine airplanes: 20
Helicopters: 1
    
Aircraft operations: avg 27/day *
75% transient general aviation
15% local general aviation
10% military
* for 12-month period ending 27 March 2020

Additional Remarks

MILITARY TFC NEAR AIRPORT
SOUTH HALF OF PARALLEL TAXIWAY TO RUNWAY 03 IN FAILED CONDITION.
PREFERRED CALM WIND RY 21.
FOR CD CTC ALBUQUERQUE ARTCC AT 505-856-4861.

Instrument Procedures

NOTE: All procedures below are presented as PDF files. If you need a reader for these files, you should download the free Adobe Reader.

NOT FOR NAVIGATION. Please procure official charts for flight.
FAA instrument procedures published for use from 03 November 2022 at 0901Z to 01 December 2022 at 0900Z.

 
IAPs - Instrument Approach Procedures
RNAV (GPS) RWY 03   download (252KB)
RNAV (GPS) RWY 21   download (276KB)
 
COCHISE ONE (OBSTACLE)   download (148KB)
NOTE: Special Take-Off Minimums/Departure Procedures apply **CHANGED**   download (356KB)

Other nearby airports with instrument procedures:

KSAD - Safford Regional Airport (39 nm N)
KFHU - Sierra Vista Municipal Airport-Libby Army Airfield (46 nm SW)
KDUG - Bisbee Douglas International Airport (49 nm S)
KDMA - Davis Monthan Air Force Base (50 nm W)
KTUS - Tucson International Airport (54 nm W)
 
Loc | Ops | Rwys | IFR | FBO | Links
Com | Nav | Svcs | Stats | Notes
Area around P33 (Cochise County Airport)
 
Road maps at: MapQuest Bing Google
 
Aerial photo
WARNING: Photo may not be current or correct
Aerial photo of P33 (Cochise County Airport)
Photo by Trent Thomas
Photo taken 27-Apr-2016
looking south-southwest.

Do you have a better or more recent aerial photo of Cochise County Airport that you would like to share? If so, please send us your photo.

 
Sectional chart

 
Airport distance calculator
Flying to Cochise County Airport? Find the distance to fly.

From to P33

Sunrise and sunset
Times for 29-Nov-2022
 Local
(UTC-7)
 Zulu
(UTC)
Morning civil twilight06:3613:36
Sunrise07:0214:02
Sunset17:1400:14
Evening civil twilight17:4000:40

Current date and time
Zulu (UTC)  29-Nov-2022 10:51:44
Local (UTC-7)  29-Nov-2022 03:51:44
 
METAR
KSAD 
39nm N 
290951Z AUTO 09006KT 10SM CLR 03/M10 A2980 RMK AO2 SLP075 T00281100 $
KFHU 
45nm SW 
291020Z AUTO 17003KT 10SM CLR 11/M07 A2990 RMK AO2 SLP090
KALK 
47nm SW 
290956Z AUTO 22022G36KT 10SM CLR 11/M07 A2987 RMK AO2 PK WND 21036/0947 SLP046 T01061072 $
KDUG 
49nm S 
290956Z AUTO 06005KT 10SM CLR 05/M07 A2988 RMK AO2 SLP083 T00501072 TSNO
KDMA 
50nm W 
290955Z AUTO 21013KT 10SM CLR 07/M07 A2982 RMK AO2 SLP117 T00681069 $
TAF
KFHU 
45nm SW 
290600Z 2906/3012 22012KT 9999 SKC 530106 QNH2987INS TEMPO 2906/2916 22020G35KT 560007 BECMG 2915/2916 24018G28KT 9999 SKC 520007 QNH2995INS BECMG 3000/3001 26009KT 9999 SKC QNH2998INS TX17/2921Z TN06/2912Z
KDMA 
50nm W 
290830Z 2908/3012 18010KT 9999 SKC QNH2983INS BECMG 2914/2915 VRB06KT 9999 SKC QNH2990INS BECMG 2917/2918 29012KT 9999 SKC QNH2990INS BECMG 3001/3002 23009KT 9999 SKC QNH2982INS TX17/2920Z TN08/2912Z
NOTAMs
Click for the latest NOTAMs
NOTAMs are issued by the DoD/FAA and will open in a separate window not controlled by AirNav.

 

 
 

FBO, Fuel Providers, and Aircraft Ground Support

  
 Business Name 
 
 Contact 
 
 Services / Description 
 
Fuel Prices
 
Comments
  
Walden Aviation 520-384-2908
[email]
Airport management, Aviation fuel, Aircraft parking (ramp or tiedown), Passenger terminal and lounge, Pilot supplies, Pilots lounge / snooze room, ...

More info about Walden Aviation
Phillips 66
100LL Jet A
PS $6.40 $6.00 
 Updated 13-Nov-2022
 
   3 read write
PS=Pump service
Update Fuel Prices
 

Would you like to see your business listed on this page?

 If your business provides an interesting product or service to pilots, flight crews, aircraft, or users of the Cochise County Airport, you should consider listing it here.  To start the listing process, click on the button below
 
Add a business
 

Other Pages about Cochise County Airport

Update a link
 
Copyright © AirNav, LLC. All rights reserved. Privacy Policy  Contact